Time,TemperatureF,DewpointF,PressureIn,WindDirection,WindDirectionDegrees,WindSpeedMPH,WindSpeedGustMPH,Humidity,HourlyPrecipIn,Conditions,Clouds,dailyrainin,SoftwareType,DateUTC
2013-06-24 00:06:00,71.2,70.0,29.99,SW,225,0.0,-999.0,96,-99.99,,,0.68,Acu-Link.com,2013-06-24 04:06:00,
2013-06-24 00:21:00,71.2,70.0,29.99,SW,225,0.0,-999.0,96,-99.99,,,0.68,Acu-Link.com,2013-06-24 04:21:00,
2013-06-24 00:36:00,71.2,70.3,29.99,NE,45,0.0,-999.0,97,-99.99,,,0.68,Acu-Link.com,2013-06-24 04:36:00,
2013-06-24 00:51:00,71.1,70.2,29.99,NE,45,0.0,-999.0,97,-99.99,,,0.68,Acu-Link.com,2013-06-24 04:51:00,
2013-06-24 01:06:00,70.9,70.0,30.00,NNE,22,0.0,-999.0,97,-99.99,,,0.00,Acu-Link.com,2013-06-24 05:06:00,
2013-06-24 01:21:00,70.7,69.8,30.00,North,0,0.0,-999.0,97,-99.99,,,0.00,Acu-Link.com,2013-06-24 05:21:00,
2013-06-24 01:52:00,70.3,69.4,30.00,NE,45,0.0,-999.0,97,-99.99,,,0.00,Acu-Link.com,2013-06-24 05:52:00,
2013-06-24 02:07:00,70.3,69.4,30.00,NE,45,0.0,-999.0,97,-99.99,,,0.00,Acu-Link.com,2013-06-24 06:07:00,
2013-06-24 02:22:00,70.2,69.3,29.99,NNW,337,0.0,-999.0,97,-99.99,,,0.00,Acu-Link.com,2013-06-24 06:22:00,
2013-06-24 02:52:00,70.2,69.3,29.99,NW,315,0.0,-999.0,97,-99.99,,,0.00,Acu-Link.com,2013-06-24 06:52:00,
2013-06-24 03:07:00,70.0,69.1,30.00,NW,315,0.0,-999.0,97,-99.99,,,0.00,Acu-Link.com,2013-06-24 07:07:00,
2013-06-24 03:22:00,69.8,68.9,29.99,NW,315,0.0,-999.0,97,-99.99,,,0.00,Acu-Link.com,2013-06-24 07:22:00,
2013-06-24 03:53:00,69.4,68.8,30.00,NW,315,0.0,-999.0,98,-99.99,,,0.00,Acu-Link.com,2013-06-24 07:53:00,
2013-06-24 04:09:00,69.1,68.5,29.99,NW,315,0.0,-999.0,98,-99.99,,,0.00,Acu-Link.com,2013-06-24 08:09:00,
2013-06-24 04:39:00,69.1,68.5,29.99,NNE,22,0.0,-999.0,98,-99.99,,,0.00,Acu-Link.com,2013-06-24 08:39:00,
2013-06-24 04:54:00,68.9,68.3,29.98,NNE,22,0.0,-999.0,98,-99.99,,,0.00,Acu-Link.com,2013-06-24 08:54:00,
2013-06-24 05:10:00,68.9,68.3,29.99,NNE,22,0.0,-999.0,98,-99.99,,,0.00,Acu-Link.com,2013-06-24 09:10:00,
2013-06-24 05:25:00,68.9,68.3,29.99,NNE,22,0.0,-999.0,98,-99.99,,,0.00,Acu-Link.com,2013-06-24 09:25:00,
2013-06-24 05:55:00,68.7,68.1,30.00,NNE,22,0.0,-999.0,98,-99.99,,,0.00,Acu-Link.com,2013-06-24 09:55:00,
2013-06-24 06:10:00,69.1,68.5,30.00,NNE,22,0.0,-999.0,98,-99.99,,,0.00,Acu-Link.com,2013-06-24 10:10:00,
2013-06-24 06:25:00,69.6,69.0,30.00,NNE,22,0.0,-999.0,98,-99.99,,,0.00,Acu-Link.com,2013-06-24 10:25:00,
2013-06-24 06:40:00,69.6,69.0,30.01,NNE,22,0.0,-999.0,98,-99.99,,,0.00,Acu-Link.com,2013-06-24 10:40:00,
2013-06-24 06:55:00,69.6,69.0,30.01,NNE,22,0.0,-999.0,98,-99.99,,,0.00,Acu-Link.com,2013-06-24 10:55:00,
2013-06-24 07:10:00,70.0,69.7,30.03,NNE,22,0.0,-999.0,99,-99.99,,,0.00,Acu-Link.com,2013-06-24 11:10:00,
2013-06-24 07:26:00,70.0,69.7,30.02,NE,45,0.0,-999.0,99,-99.99,,,0.00,Acu-Link.com,2013-06-24 11:26:00,
2013-06-24 07:41:00,70.3,70.0,30.01,NE,45,0.0,-999.0,99,-99.99,,,0.00,Acu-Link.com,2013-06-24 11:41:00,
2013-06-24 07:56:00,70.9,70.6,30.01,NE,45,0.0,-999.0,99,-99.99,,,0.00,Acu-Link.com,2013-06-24 11:56:00,
2013-06-24 08:11:00,71.4,71.1,30.02,NE,45,0.0,-999.0,99,-99.99,,,0.00,Acu-Link.com,2013-06-24 12:11:00,
2013-06-24 08:41:00,72.3,72.0,30.03,ENE,67,0.0,-999.0,99,-99.99,,,0.00,Acu-Link.com,2013-06-24 12:41:00,
2013-06-24 08:56:00,72.9,72.3,30.02,NNE,22,0.0,-999.0,98,-99.99,,,0.00,Acu-Link.com,2013-06-24 12:56:00,
2013-06-24 09:11:00,74.1,72.9,30.03,SSW,202,0.0,-999.0,96,-99.99,,,0.00,Acu-Link.com,2013-06-24 13:11:00,
2013-06-24 09:42:00,76.6,74.1,30.02,SSE,157,0.0,-999.0,92,-99.99,,,0.00,Acu-Link.com,2013-06-24 13:42:00,
2013-06-24 09:57:00,77.5,74.3,30.01,SSW,202,0.0,-999.0,90,-99.99,,,0.00,Acu-Link.com,2013-06-24 13:57:00,
2013-06-24 10:57:00,81.0,75.3,30.03,ENE,67,0.0,-999.0,83,-99.99,,,0.00,Acu-Link.com,2013-06-24 14:57:00,
2013-06-24 11:12:00,80.1,75.2,30.04,NNW,337,1.7,-999.0,85,-99.99,,,0.00,Acu-Link.com,2013-06-24 15:12:00,
2013-06-24 11:27:00,81.1,76.1,30.03,ESE,112,1.1,-999.0,85,-99.99,,,0.00,Acu-Link.com,2013-06-24 15:27:00,
2013-06-24 11:58:00,82.2,75.4,30.03,NNW,337,2.2,-999.0,80,-99.99,,,0.00,Acu-Link.com,2013-06-24 15:58:00,
2013-06-24 12:13:00,83.3,75.7,30.01,SSW,202,0.0,-999.0,78,-99.99,,,0.00,Acu-Link.com,2013-06-24 16:13:00,
2013-06-24 12:28:00,83.5,76.3,30.01,NW,315,2.2,-999.0,79,-99.99,,,0.00,Acu-Link.com,2013-06-24 16:28:00,
2013-06-24 12:58:00,82.8,76.4,29.99,SSW,202,0.0,-999.0,81,-99.99,,,0.00,Acu-Link.com,2013-06-24 16:58:00,
2013-06-24 13:13:00,85.5,75.8,29.98,NNE,22,0.0,-999.0,73,-99.99,,,0.00,Acu-Link.com,2013-06-24 17:13:00,
2013-06-24 13:28:00,86.5,77.2,29.99,West,270,2.2,-999.0,74,-99.99,,,0.00,Acu-Link.com,2013-06-24 17:28:00,
2013-06-24 14:14:00,84.6,77.7,29.97,SW,225,1.1,-999.0,80,-99.99,,,0.00,Acu-Link.com,2013-06-24 18:14:00,
2013-06-24 14:29:00,82.4,73.7,29.98,SW,225,0.0,-999.0,75,-99.99,,,0.00,Acu-Link.com,2013-06-24 18:29:00,
2013-06-24 14:59:00,76.1,72.3,29.97,ESE,112,0.0,-999.0,88,-99.99,,,0.00,Acu-Link.com,2013-06-24 18:59:00,
2013-06-24 15:29:00,75.2,72.1,29.97,SE,135,0.0,-999.0,90,-99.99,,,0.00,Acu-Link.com,2013-06-24 19:29:00,
2013-06-24 16:14:00,75.0,71.9,29.95,WNW,292,1.1,-999.0,90,-99.99,,,0.00,Acu-Link.com,2013-06-24 20:14:00,
2013-06-24 16:30:00,74.8,72.0,29.95,SE,135,0.0,-999.0,91,-99.99,,,0.00,Acu-Link.com,2013-06-24 20:30:00,
2013-06-24 16:45:00,74.7,71.6,29.96,South,180,0.0,-999.0,90,-99.99,,,0.00,Acu-Link.com,2013-06-24 20:45:00,
2013-06-24 17:00:00,74.5,70.4,29.96,SSE,157,4.2,-999.0,87,-99.99,,,0.00,Acu-Link.com,2013-06-24 21:00:00,
2013-06-24 17:15:00,74.5,70.7,29.93,SSE,157,0.0,-999.0,88,-99.99,,,0.00,Acu-Link.com,2013-06-24 21:15:00,
2013-06-24 17:30:00,74.8,70.7,29.94,SE,135,0.0,-999.0,87,-99.99,,,0.00,Acu-Link.com,2013-06-24 21:30:00,
2013-06-24 18:00:00,75.4,70.9,29.95,SSE,157,0.0,-999.0,86,-99.99,,,0.00,Acu-Link.com,2013-06-24 22:00:00,
2013-06-24 18:16:00,75.6,71.1,29.94,South,180,0.0,-999.0,86,-99.99,,,0.00,Acu-Link.com,2013-06-24 22:16:00,
2013-06-24 18:31:00,75.9,71.1,29.93,SSE,157,0.0,-999.0,85,-99.99,,,0.00,Acu-Link.com,2013-06-24 22:31:00,
2013-06-24 18:46:00,76.1,71.6,29.94,South,180,0.0,-999.0,86,-99.99,,,0.00,Acu-Link.com,2013-06-24 22:46:00,
2013-06-24 19:01:00,75.6,71.4,29.93,SE,135,0.0,-999.0,87,-99.99,,,0.00,Acu-Link.com,2013-06-24 23:01:00,
2013-06-24 19:16:00,75.7,71.9,29.92,SSW,202,1.1,-999.0,88,-99.99,,,0.00,Acu-Link.com,2013-06-24 23:16:00,
2013-06-24 19:31:00,75.4,72.3,29.93,ESE,112,0.0,-999.0,90,-99.99,,,0.00,Acu-Link.com,2013-06-24 23:31:00,
2013-06-24 19:46:00,75.0,71.9,29.92,NNW,337,0.0,-999.0,90,-99.99,,,0.00,Acu-Link.com,2013-06-24 23:46:00,
2013-06-24 20:01:00,74.8,71.7,29.94,SSE,157,0.0,-999.0,90,-99.99,,,0.00,Acu-Link.com,2013-06-25 00:01:00,
2013-06-24 20:32:00,73.8,71.3,29.94,SSE,157,0.0,-999.0,92,-99.99,,,0.00,Acu-Link.com,2013-06-25 00:32:00,
2013-06-24 21:02:00,72.7,70.2,29.94,NE,45,0.0,-999.0,92,-99.99,,,0.00,Acu-Link.com,2013-06-25 01:02:00,
2013-06-24 21:17:00,72.5,70.0,29.94,WSW,247,0.0,-999.0,92,-99.99,,,0.00,Acu-Link.com,2013-06-25 01:17:00,
2013-06-24 21:47:00,71.6,69.5,29.94,WNW,292,0.0,-999.0,93,-99.99,,,0.00,Acu-Link.com,2013-06-25 01:47:00,
2013-06-24 22:02:00,71.2,69.4,29.95,WSW,247,1.7,-999.0,94,-99.99,,,0.00,Acu-Link.com,2013-06-25 02:02:00,
2013-06-24 22:17:00,71.1,69.3,29.95,West,270,0.0,-999.0,94,-99.99,,,0.00,Acu-Link.com,2013-06-25 02:17:00,
2013-06-24 22:32:00,71.1,69.3,29.96,East,90,0.0,-999.0,94,-99.99,,,0.00,Acu-Link.com,2013-06-25 02:32:00,
2013-06-24 22:48:00,71.2,69.4,29.95,SSE,157,0.0,-999.0,94,-99.99,,,0.00,Acu-Link.com,2013-06-25 02:48:00,
2013-06-24 23:03:00,71.1,69.3,29.96,SW,225,0.0,-999.0,94,-99.99,,,0.00,Acu-Link.com,2013-06-25 03:03:00,
2013-06-24 23:33:00,70.7,68.9,29.95,WSW,247,0.0,-999.0,94,-99.99,,,0.00,Acu-Link.com,2013-06-25 03:33:00,